Regional Weather Roundup
Issued by NWS Charleston, SC

Current Version | Previous Version | Graphics & Text | Print | Product List | Glossary On
Versions: 1 2 3 4 5 6 7 8 9 10 11 12 13 14 15 16 17 18 19 20 21 22 23 24 25 26 27 28 29 30 31 32 33 34 35 36 37 38 39 40 41 42 43 44 45 46 47 48 49 50
000
ASUS42 KCHS 032227
RWRCHS

REGIONAL WEATHER ROUNDUP
NATIONAL WEATHER SERVICE CHARLESTON SC
600 PM EDT SUN MAY 03 2015

NOTE: "FAIR" INDICATES FEW OR NO CLOUDS BELOW 12,000 FEET WITH NO
SIGNIFICANT WEATHER AND/OR OBSTRUCTIONS TO VISIBILITY.

NOT ALL STATIONS ARE QUALITY CONTROLLED BY THE NATIONAL
WEATHER SERVICE. USE DATA WITH CAUTION...ESPECIALLY
DEWPOINT OBSERVATIONS.

SCZ027-030-031-034>040-042>050-032300-
...SOUTHEAST SOUTH CAROLINA...

CITY           SKY/WX    TMP DP  RH WIND       PRES   REMARKS
N CHARLESTON   MOSUNNY   77  52  41 S10       30.16R
WATERFRONT PRK NOT AVBL
MOUNT PLEASANT FAIR      73  61  64 MISG      30.17S
PINOPOLIS      NOT AVBL
MONCKS CORNER  FAIR      79  54  41 SE7       30.15S
SUMMERVILLE    FAIR      79  50  36 CALM      30.15S
BEAUFORT MCAS  MOSUNNY   78  54  43 SE6       30.15S
BEAUFORT ARPT  FAIR      77  55  47 S5        30.15S
HILTON HEAD IS SUNNY     75  54  46 S5        30.17S
WALTERBORO     CLEAR     77  50  38 E3        30.15S
ALLENDALE      FAIR      79  48  34 CALM      30.13S

...SOUTHERN MIDLANDS AND PEE DEE...

CITY           SKY/WX    TMP DP  RH WIND       PRES   REMARKS
GEORGETOWN     NOT AVBL
KINGSTREE      NOT AVBL
ORANGEBURG     MOSUNNY   80  50  34 S7        30.14S
BARNWELL       FAIR      81  48  32 SE3       30.14S
AIKEN          MOCLDY    79  43  27 S5        30.17S
MANNING        FAIR      77  43  29 CALM      30.14F
COLUMBIA       MOSUNNY   80  47  31 CALM      30.13S
SUMTER         SUNNY     80  45  29 E6        30.12F
FLORENCE       PTSUNNY   79  44  28 E5        30.14S
MYRTLE BEACH   MOSUNNY   73  61  64 S13       30.20S
N MYRTLE BEACH SUNNY     71  55  56 S8        30.18S

$$

GAZ063-065-086>088-099>101-113>116-118-119-134>141-150-032300-
...SOUTHEAST GEORGIA...

CITY           SKY/WX    TMP DP  RH WIND       PRES   REMARKS
SAVANNAH ARPT  MOSUNNY   78  47  33 S13       30.15S
HUNTER AAF     SUNNY     78  49  35 SE8       30.13S
FORT STEWART   MOSUNNY   79  50  35 SE8       30.13S
STATESBORO       N/A     81  50  34 CALM      30.14S
SYLVANIA       PTCLDY    80  51  36 CALM      30.15S
CLAXTON        FAIR      79  52  38 S3        30.14S

...CSRA...CENTRAL AND FAR SOUTHEAST GEORGIA...

CITY           SKY/WX    TMP DP  RH WIND       PRES   REMARKS
THOMSON        PTSUNNY   79  55  44 CALM      30.18S
AUGUSTA-BUSH   SUNNY     79  49  34 S6        30.13S
AUGUSTA-DANIEL SUNNY     80  47  31 S5        30.14S
SWAINSBORO     NOT AVBL
VIDALIA        MOSUNNY   81  50  34 SE6       30.14S
EASTMAN        FAIR      81  51  35 SE3       30.15S
HAZLEHURST     MOCLDY    81  49  32 CALM      30.13S
ALMA           MOSUNNY   81  48  31 VRB7      30.13F
WAYCROSS       PTSUNNY   84  52  32 SE8       30.13S
JESUP          FAIR      81  52  36 SE8       30.15R
BAXLEY         FAIR      81  46  30 CALM      30.13S
BRUNSWICK      SUNNY     79  41  25 SE9       30.17S
SAINT SIMONS   SUNNY     76  46  34 SE7       30.17S

$$

SCZ027-028-034-036>038-045-046-048>050-GAZ119-141-032300-
...LAKE AND SUPPLEMENTAL COASTAL OBSERVATIONS...

STATION/POSITION TIME  TEMP    WIND        PRES    WAVE   SWELL
                       AIR SEA DIR/SP/G            HT/PER HT/PER/DIR
                 (UTC) (F)     (DEG/KT/KT) (MB)    (FT/S) (FT/S/D)
UPR LAKE MARION  NOT AVBL
WINYAH BAY       2145   71     130/  9     1021.0S
LAKE MURRAY      2100   82     160/  2/  3 1020.0F
ACE BASIN NERRS  NOT AVBL
FORT PULASKI     2100   76 70  160/  6/  9 1021.9F
SAPELO ISLAND    2200   79     150/  7     1021.0S

$$

ANZ835-935-AMZ111-154-330-350-352-354-370-450-454-472-032300-
...C-MAN AND BUOY OBSERVATIONS...

STATION/POSITION TIME  TEMP    WIND        PRES    WAVE   SWELL
                       AIR SEA DIR/SP/G            HT/PER HT/PER/DIR
                 (UTC) (F)     (DEG/KT/KT) (MB)    (FT/S) (FT/S/D)
BUOY 41004       2150   71 78  120/  4/  6 1021.5F   3/10   2/10
BUOY 41008       2150   73 74  180/  4/  4 1021.9F   3/13   3/ 80/13
FOLLY BEACH CMAN 2200   71     180/  8/  9 1021.6S
CAPERS NEARSHORE 2108   70     150/  8/ 10 1021.6F
FRIPP NEARSHORE  2100   73     180/ 10/ 10 1021.0F


STATION/POSITION TIME  TEMP    WIND        PRES    WAVE   SWELL
                       AIR SEA DIR/SP/G            HT/PER HT/PER/DIR
                 (UTC) (F)     (DEG/KT/KT) (MB)    (FT/S) (FT/S/D)
5E ST. MARYS GA  2121      75                N/A     2/13   2/ 90/13
FRYING PAN BUOY  2150   73 75  120/  4/  6 1023.0R   4/ 8   3/ 80/ 8
BUOY 41025       2150   66 62  220/  4/  6 1022.0R   4/ 9   5/ 60/ 9
CAPE LOOKOUT NC  2200   71     200/  8/ 10 1021.8R
BUOY 41002       2150   69 70   30/ 14/ 19 1022.3R   9/11   8/ 30/11
BUOY 41010       2120   73 78   50/ 10/ 14 1021.2F
ST AUGUSTINE FL  2200   73 73   90/  9/  9 1022.0F


$$


USA.gov is the U.S. government's official web portal to all federal, state and local government web resources and services.